Location: Lalanga
(4.5882°N, 32.9072°E)
Time: 15:21:33
(UTC+00:00)

Sakura Rocket - Pass Details

Date: 24 January 2020
Orbit: 476 x 1743 km, 28.7° (Epoch: 26 February)

Event Time Altitude Azimuth Distance (km) Brightness Sun altitude
Rises 16:40:13 0° 229° (SW) 2,680 7.7 -10.9°
Reaches altitude 10° 16:42:39 10° 221° (SW) 1,701 6.3 -11.5°
Maximum altitude 16:46:12 41° 150° (SSE) 701 3.2 -12.3°
Enters shadow 16:48:19 20° 89° (E) 1,149 3.9 -12.8°
